星链-36822(STARLINK-36822)

导读

STARLINK-36822是美国SpaceX公司星链(Starlink)星座的一员,于北京时间2026年2月22日搭载猎鹰9号火箭发射升空,本次任务共将28颗星链卫星送入轨道。星链星座旨在构建低轨卫星互联网,为全球缺乏传统基础设施的偏远地区提供高速、低延迟的宽带网络服务,助力实现全球互联网覆盖。

Basic Information
目录编号:
67909
目录名称:
STARLINK-36822
国际标识:
2026-036F
轨道中心:
EARTH
卫星名称:
星链-36822
卫星全名:
星链-36822(STARLINK-36822)
卫星状态:
在轨 (已飞行194 天)
发射日期:
2026-02-22 UTC
国别 :
美国 (US)
星等 :
--
Orbit Information
数据来源 国际轨道数据
星历时间: 2026-09-04T14:47:10+0800
8小时前
查看轨道信息
半长轴: 6861.171km
偏心率: 0.0001185
轨道倾角: 43.000°
近地点辐角 266.466°
升交点赤经 316.839°
平近点角 93.606°
近地点: 482.22km
远地点: 483.848km
周期: 94.266分钟
每日圈数: 15.275851
Detailed Information
固有亮度:
5
最大亮度:
2.5
卫星平台:
Starlink V1.0
覆盖范围:
全球
运营商:
太空探索技术公司
运营商所在国:
美国
制造商(研发单位):
太空探索技术公司
制造商所在国:
美国
使用方式:
暂无
Satellite Introduction
Starlink 计划是 SpaceX 推出的全球卫星互联网项目,通过发射低轨道卫星,为全球尤其是偏远地区提供高速、低延迟的互联网服务。自 2019 年起,Starlink 已部署数千颗卫星,旨在缩小全球数字鸿沟,推动互联网普及。该项目还为军事、航空等行业提供通信支持,带来广泛经济效益。
2D Orbit Map
3D Orbit Map
Orbit Altitude Analysis Chart
Orbit Inclination Analysis Chart
Orbit Comprehensive Analysis Chart
View Comprehensive Chart
Conjunction Data List
Event ID Objects TCA Miss Dist (km) Collision Risk Probability Collision Risk Index (CRI) Action
CDM_260902-235705-949906-790921
2026-09-02T
23:57:28+0000
0.788 km
远距离
3.778038E-5 中风险 0.67
CDM_260906-031305-870206-790921
2026-09-06T
03:13:35+0000
2.588 km
极远距离
1.551847E-6 低风险 0.39